When you browse on this site, cookies collect data to enhance your experience and personalize the content and advertising you see.
Visit our Privacy Policy to learn more. By continuing to use the site, you agree to this use of cookies and data.
  • In Switzerland
  • List of Countries
  • For 7 days
  • Water Temperature
  • Weather Map
  • Weather Widgets
  • user-avatar
    Login

    Hourly Weather Kipungo

    Today, 14 December, Saturday

    Time Temperature Precipitation Wind Pressure Humidity
    00:00 +22°C° 0 mm 1 mps 653 mmHg 55%
    01:00 +21°C° 0 mm 1 mps 653 mmHg 59%
    02:00 +21°C° 0 mm 1 mps 652 mmHg 57%
    03:00 +21°C° 0 mm 1 mps 652 mmHg 55%
    04:00 +21°C° 0 mm 1 mps 652 mmHg 53%
    05:00 +22°C° 0 mm 1 mps 653 mmHg 52%
    06:00 +22°C° 0 mm 1 mps 653 mmHg 50%
    07:00 +21°C° 0 mm 0 mps 654 mmHg 49%
    08:00 +26°C° 0 mm 1 mps 654 mmHg 43%
    09:00 +28°C° 0 mm 1 mps 655 mmHg 37%
    10:00 +31°C° 0 mm 1 mps 656 mmHg 31%
    11:00 +32°C° 0 mm 1 mps 655 mmHg 30%
    12:00 +35°C° 0 mm 2 mps 655 mmHg 28%
    13:00 +36°C° 0 mm 2 mps 655 mmHg 27%
    14:00 +35°C° 0 mm 2 mps 654 mmHg 28%
    15:00 +35°C° 0 mm 3 mps 653 mmHg 29%
    16:00 +34°C° 0 mm 3 mps 653 mmHg 31%
    17:00 +31°C° 0 mm 2 mps 653 mmHg 37%
    18:00 +28°C° 0 mm 2 mps 653 mmHg 43%
    19:00 +26°C° 0 mm 1 mps 653 mmHg 50%
    20:00 +25°C° 0.1 mm 1 mps 653 mmHg 55%
    21:00 +24°C° 0.1 mm 1 mps 653 mmHg 60%
    22:00 +23°C° 0.1 mm 1 mps 654 mmHg 66%
    23:00 +22°C° 0.2 mm 1 mps 653 mmHg 70%

    Tomorrow, 15 December, Sunday

    Time Temperature Precipitation Wind Pressure Humidity
    00:00 +21°C° 0.2 mm 1 mps 653 mmHg 75%
    01:00 +21°C° 0.2 mm 1 mps 653 mmHg 80%
    02:00 +20°C° 0.1 mm 1 mps 652 mmHg 83%
    03:00 +20°C° 0.1 mm 1 mps 652 mmHg 85%
    04:00 +20°C° 0.1 mm 1 mps 652 mmHg 88%
    05:00 +21°C° 0.1 mm 1 mps 652 mmHg 84%
    06:00 +22°C° 0.1 mm 1 mps 653 mmHg 81%
    07:00 +21°C° 0.1 mm 0 mps 654 mmHg 77%
    08:00 +26°C° 0 mm 1 mps 654 mmHg 65%
    09:00 +29°C° 0 mm 1 mps 655 mmHg 52%
    10:00 +33°C° 0 mm 1 mps 656 mmHg 39%
    11:00 +33°C° 0 mm 1 mps 655 mmHg 38%
    12:00 +32°C° 0 mm 2 mps 654 mmHg 38%
    13:00 +32°C° 0 mm 2 mps 653 mmHg 37%
    14:00 +31°C° 0.1 mm 3 mps 653 mmHg 40%
    15:00 +30°C° 0.1 mm 3 mps 652 mmHg 44%
    16:00 +29°C° 0.1 mm 3 mps 652 mmHg 47%
    17:00 +27°C° 1.3 mm 3 mps 652 mmHg 60%
    18:00 +24°C° 1.3 mm 3 mps 652 mmHg 72%
    19:00 +20°C° 1.3 mm 2 mps 651 mmHg 84%
    20:00 +20°C° 0.4 mm 2 mps 652 mmHg 86%
    21:00 +21°C° 0.4 mm 1 mps 652 mmHg 88%
    22:00 +20°C° 0.4 mm 1 mps 653 mmHg 90%
    23:00 +20°C° 0.1 mm 1 mps 653 mmHg 90%

    Day after tomorrow, 16 December, Monday

    Time Temperature Precipitation Wind Pressure Humidity
    00:00 +20°C° 0.1 mm 1 mps 652 mmHg 91%
    01:00 +20°C° 0.1 mm 1 mps 652 mmHg 92%
    02:00 +20°C° 0 mm 1 mps 652 mmHg 92%
    03:00 +20°C° 0 mm 1 mps 651 mmHg 92%
    04:00 +18°C° 0 mm 0 mps 651 mmHg 92%
    05:00 +20°C° 0 mm 1 mps 652 mmHg 90%
    06:00 +21°C° 0 mm 1 mps 652 mmHg 88%
    07:00 +21°C° 0 mm 1 mps 653 mmHg 85%
    08:00 +25°C° 0 mm 1 mps 654 mmHg 72%
    09:00 +28°C° 0 mm 1 mps 654 mmHg 59%
    10:00 +30°C° 0 mm 0 mps 655 mmHg 46%
    11:00 +32°C° 0 mm 1 mps 655 mmHg 43%
    12:00 +33°C° 0 mm 1 mps 654 mmHg 40%
    13:00 +34°C° 0 mm 1 mps 653 mmHg 36%
    14:00 +31°C° 0.4 mm 2 mps 653 mmHg 45%
    15:00 +29°C° 0.4 mm 3 mps 652 mmHg 53%
    16:00 +27°C° 0.4 mm 4 mps 651 mmHg 61%
    17:00 +25°C° 1.3 mm 3 mps 651 mmHg 70%
    18:00 +22°C° 1.3 mm 3 mps 651 mmHg 78%
    19:00 +20°C° 1.3 mm 2 mps 651 mmHg 86%
    20:00 +20°C° 0.2 mm 2 mps 652 mmHg 88%
    21:00 +21°C° 0.2 mm 1 mps 652 mmHg 89%
    22:00 +21°C° 0.2 mm 1 mps 653 mmHg 91%
    23:00 +20°C° 0 mm 1 mps 652 mmHg 91%

    17 December, Tuesday

    Time Temperature Precipitation Wind Pressure Humidity
    00:00 +20°C° 0 mm 1 mps 652 mmHg 92%
    01:00 +20°C° 0 mm 1 mps 651 mmHg 93%
    02:00 +20°C° 0.1 mm 1 mps 651 mmHg 92%
    03:00 +20°C° 0.1 mm 1 mps 651 mmHg 92%
    04:00 +20°C° 0.1 mm 1 mps 651 mmHg 91%
    05:00 +21°C° 0.3 mm 1 mps 652 mmHg 90%
    06:00 +21°C° 0.3 mm 1 mps 652 mmHg 88%
    07:00 +21°C° 0.3 mm 1 mps 653 mmHg 86%
    08:00 +22°C° 0.3 mm 1 mps 653 mmHg 82%
    09:00 +23°C° 0.3 mm 1 mps 653 mmHg 77%
    10:00 +24°C° 0.3 mm 1 mps 653 mmHg 73%
    11:00 +27°C° 0.6 mm 1 mps 653 mmHg 65%
    12:00 +29°C° 0.6 mm 1 mps 653 mmHg 56%
    13:00 +31°C° 0.6 mm 1 mps 653 mmHg 48%
    14:00 +29°C° 0.9 mm 2 mps 652 mmHg 56%
    15:00 +27°C° 0.9 mm 2 mps 651 mmHg 63%
    16:00 +25°C° 0.9 mm 3 mps 650 mmHg 71%
    17:00 +24°C° 1.4 mm 3 mps 651 mmHg 76%
    18:00 +23°C° 1.4 mm 2 mps 651 mmHg 81%
    19:00 +21°C° 1.4 mm 2 mps 651 mmHg 86%
    20:00 +21°C° 1 mm 2 mps 652 mmHg 88%
    21:00 +22°C° 1 mm 1 mps 652 mmHg 89%
    22:00 +21°C° 1 mm 1 mps 653 mmHg 91%
    23:00 +21°C° 1.4 mm 1 mps 652 mmHg 92%

    18 December, Wednesday

    Time Temperature Precipitation Wind Pressure Humidity
    00:00 +21°C° 1.4 mm 1 mps 652 mmHg 93%
    01:00 +20°C° 1.4 mm 1 mps 652 mmHg 94%
    02:00 +18°C° 0.6 mm 0 mps 651 mmHg 94%
    03:00 +18°C° 0.6 mm 0 mps 651 mmHg 94%
    04:00 +18°C° 0.6 mm 0 mps 651 mmHg 93%
    05:00 +18°C° 0.6 mm 0 mps 651 mmHg 93%
    06:00 +20°C° 0.6 mm 1 mps 652 mmHg 93%
    07:00 +21°C° 0.6 mm 1 mps 652 mmHg 92%
    08:00 +22°C° 0.1 mm 1 mps 653 mmHg 86%
    09:00 +24°C° 0.1 mm 1 mps 653 mmHg 80%
    10:00 +25°C° 0.1 mm 1 mps 653 mmHg 73%
    11:00 +27°C° 0 mm 1 mps 653 mmHg 65%
    12:00 +29°C° 0 mm 1 mps 653 mmHg 58%
    13:00 +29°C° 0 mm 0 mps 653 mmHg 50%
    14:00 +30°C° 0.1 mm 1 mps 652 mmHg 53%
    15:00 +29°C° 0.1 mm 1 mps 652 mmHg 56%
    16:00 +28°C° 0.1 mm 1 mps 651 mmHg 59%
    17:00 +26°C° 1.3 mm 2 mps 651 mmHg 67%
    18:00 +24°C° 1.3 mm 2 mps 651 mmHg 76%
    19:00 +22°C° 1.3 mm 3 mps 651 mmHg 85%
    20:00 +21°C° 2.7 mm 2 mps 651 mmHg 87%
    21:00 +21°C° 2.7 mm 2 mps 652 mmHg 90%
    22:00 +20°C° 2.7 mm 2 mps 652 mmHg 93%
    23:00 +20°C° 0.6 mm 2 mps 652 mmHg 93%

    19 December, Thursday

    Time Temperature Precipitation Wind Pressure Humidity
    00:00 +21°C° 0.6 mm 1 mps 652 mmHg 93%
    01:00 +20°C° 0.6 mm 1 mps 652 mmHg 93%
    02:00 +20°C° 0.7 mm 1 mps 652 mmHg 93%
    03:00 +20°C° 0.7 mm 1 mps 651 mmHg 94%
    04:00 +20°C° 0.7 mm 1 mps 651 mmHg 94%
    05:00 +20°C° 0.4 mm 1 mps 651 mmHg 94%
    06:00 +20°C° 0.4 mm 1 mps 652 mmHg 94%
    07:00 +20°C° 0.4 mm 1 mps 652 mmHg 93%
    08:00 +20°C° 0.1 mm 1 mps 652 mmHg 91%
    09:00 +21°C° 0.1 mm 1 mps 652 mmHg 89%
    10:00 +21°C° 0.1 mm 1 mps 652 mmHg 87%
    11:00 +23°C° 0.2 mm 1 mps 652 mmHg 80%
    12:00 +25°C° 0.2 mm 1 mps 652 mmHg 73%
    13:00 +27°C° 0.2 mm 1 mps 652 mmHg 65%
    14:00 +26°C° 1.6 mm 2 mps 652 mmHg 71%
    15:00 +25°C° 1.6 mm 2 mps 651 mmHg 76%
    16:00 +24°C° 1.6 mm 3 mps 651 mmHg 81%
    17:00 +23°C° 1.4 mm 2 mps 651 mmHg 86%
    18:00 +22°C° 1.4 mm 1 mps 651 mmHg 91%
    19:00 +21°C° 1.4 mm 1 mps 651 mmHg 95%
    20:00 +21°C° 0 mm 1 mps 652 mmHg 95%
    21:00 +21°C° 0 mm 1 mps 652 mmHg 95%
    22:00 +21°C° 0 mm 1 mps 652 mmHg 95%
    23:00 +20°C° 0.2 mm 1 mps 652 mmHg 95%
    Show more